Showing default

GEESAT 2-11, 58915

Orbit data source: Space-Track

GEESAT 2-11, 58915 is a payload satellite owned by GeeSpace (CN) in LEO that was launched on Fri, 02 Feb 2024 UTC via a CHANG ZHENG 2C launch vehicle from the Xichang Space Center, China (XSC). Payload-class satellites include a variety of spacecraft equipped with specific instruments for various scientific and technological missions. These include communications satellites like Starlink; space stations such as the ISS; scientific satellites like the Hubble; Earth observation satellites from companies like Planet Labs, Umbra, and HawkEye 360; GPS; miniature CubeSats for education and research; and military/defense satellites.

Loading next visibility...
Identifier
58915, 2024-023L
Orbit
LEO
Country
Flag of CNCN / PRC
Related business
Manufacturer
GWCG
Mission
Operational Commercial Navigation
Bus & Motor
GPS100, Unknown motor
Mass
130 kg wet, 130 kg dry
Launch date (UTC)
2024-02-02 (2 years ago)
Launch vehicle
CHANG ZHENG 2C
Launch site
Xichang Space Center, China (XSC)
Object type
Payload
Rocket body
Debris
Shape & HBR
Box + 2 Pan, 1.0 m
Radar Cross Section
0.833 m², Medium (>0.1 m² and < 1m²)

Expand to show TLE details & history
Last TLE update: 8 hours ago

TLE from 8 hours ago
0 GEESAT 2-11
1 58915U 24023L   25304.25451186  .00004754  00000-0  51229-3 0  9997
2 58915  49.9996 334.4014 0008689 300.2947  59.7134 14.89947507 94939
Epoch: 2025-10-31T06:06Z
TLE epoch observation values (Epoch: 2025-10-31T06:06:29.824Z)
Latitude
-0.00002°
Longitude
-157.02446°
Altitude
595.592 km
Speed
7.565 km/s
True Right ascension
22h 17m 36s
True Declination
0° 00' 00"
Sunlit
Object was in full shadow at epoch
Visualization orbit readout
Latitude
Unknown
Longitude
Unknown
Altitude
Unknown
Speed
Unknown
Apparent Right ascension
Unknown
Apparent Declination
Unknown
Sunlit
N/A
Visualization observer readout
Local Sidereal Time
09:36:40
Azimuth
Unknown
Elevation
Unknown
Doppler factor
Unknown
Orbital elements
Apogee altitude
604.922 km
Perigee altitude
592.798 km
Semi-major axis
6,976.997 km
Eccentricity
0.00087
Inclination
49.9996°
RAAN
334.4014°
Arg. of periapsis
300.2947°
True anomaly
59.79943°
Mean anomaly
59.7134°
Eccentric anomaly
59.75641°
Mean motion
3.72426 °/min
Orbital period
96.66 mins
BSTAR
0.00051229
Loading maneuver chart data...
Computing Atmospheric mass density...
Loading historical data...
Loading historical data...
Loading historical data...
Loading historical data...
Loading historical data...
Loading historical data...
Loading historical data...

Documentation

Showing up to 5 results
|